weather.gov     
National Weather Service

Satellite Precipitation Estimates (TXUS20 KWBC)
NWS Homepage
This page is being discontinued on March 12, 2014.
The same data is available at this site. Please update your bookmarks.
Thank you, and we apologize for the inconvenience.
Please send an email to SR-SRH.Webmaster@noaa.gov with any concerns.


Current Version
Previous Version:    01  
[Printable]
029
SPTD31 TTPP 270338
SPECI
TTCP 270323Z 00000KT 5000 -SHRA BKN016 23/21 Q1015 NOSIG=




U.S. Dept. of Commerce
NOAA National Weather Service
1325 East West Highway
Silver Spring, MD 20910
E-mail: w-nws.webmaster@noaa.gov
Page last modified: May 16, 2007
NATIONAL WEATHER SERVICE: for Safety, for Work, for Fun - FOR LIFE